This is the latest recevied weather packets stored in our database for station/object KB7STN. If no packets are shown the sender has not sent any weather packets the latest 10 day(s).
| Time | Temp. | Humidity | Pressure | Rain* | Wind** | Luminosity | Snow |
|---|---|---|---|---|---|---|---|
| 1788065196 | 16.67° C | 69% | 1023.2 hPa | 1.52 mm | - | - | - |
| 1788064896 | 17.22° C | 66% | 1023.1 hPa | 1.27 mm | - | - | - |
| 1788064596 | 17.78° C | 63% | 1022.5 hPa | 1.02 mm | - | - | - |
| 1788064296 | 17.78° C | 62% | 1022.2 hPa | 0.76 mm | - | - | - |
| 1788063996 | 18.33° C | 60% | 1022.2 hPa | 0.51 mm | - | - | - |
| 1788063696 | 18.89° C | 59% | 1021.7 hPa | 0.51 mm | - | - | - |
| 1788063396 | 18.33° C | 59% | 1021.4 hPa | 0.25 mm | - | - | - |
| 1788063097 | 18.33° C | 63% | 1021.3 hPa | 0.25 mm | - | - | - |
| 1788062797 | 17.78° C | 65% | 1020.7 hPa | 0.25 mm | - | - | - |
| 1788062497 | 17.78° C | 66% | 1020.8 hPa | 0.25 mm | - | - | - |
| 1788062197 | 18.33° C | 67% | 1021 hPa | 0.25 mm | - | - | - |
| 1788061896 | 17.78° C | 65% | 1021 hPa | 0.25 mm | - | - | - |
| 1788061597 | 18.33° C | 66% | 1020.8 hPa | 0.25 mm | - | - | - |
| 1788061297 | 18.33° C | 65% | 1020.8 hPa | 0.25 mm | - | - | - |
| 1788060997 | 18.89° C | 62% | 1020.7 hPa | 0 mm | - | - | - |
| 1788060697 | 18.89° C | 59% | 1021.1 hPa | 0 mm | - | - | - |
| 1788060396 | 18.33° C | 60% | 1020.3 hPa | 0 mm | - | - | - |
| 1788060097 | 18.33° C | 63% | 1020.4 hPa | 0 mm | - | - | - |
| 1788059797 | 18.33° C | 66% | 1020 hPa | 0 mm | - | - | - |
| 1788059497 | 18.33° C | 63% | 1019.8 hPa | 0 mm | - | - | - |
| 1788059197 | 17.78° C | 63% | 1019.6 hPa | 0 mm | - | - | - |
| 1788058897 | 17.22° C | 65% | 1019.2 hPa | 0 mm | - | - | - |
| 1788058597 | 17.22° C | 67% | 1019 hPa | 0 mm | - | - | - |
| 1788058297 | 17.22° C | 70% | 1019.1 hPa | 0 mm | - | - | - |
| 1788057997 | 17.22° C | 72% | 1019.1 hPa | 0 mm | - | - | - |
* Rain latest hour (hover to see other rain measurements)
** Current wind speed in m/s (hover to see current wind gust speed)